Regional Weather Roundup
Issued by NWS Cleveland, OH

Home | Current Version | Previous Version | Graphics & Text | Print | Product List | Glossary On
Versions: 1 2 3 4 5 6 7 8 9 10 11 12 13 14 15 16 17 18 19 20 21 22 23 24 25 26 27 28 29 30 31 32 33 34 35 36 37 38 39 40 41 42 43 44 45 46 47 48 49 50
000
ASUS41 KCLE 021010
RWRCLE
OHIO REGIONAL WEATHER ROUNDUP
NATIONAL WEATHER SERVICE CLEVELAND, OH
500 AM EST MON MAR 02 2015

NOTE: "FAIR" INDICATES FEW OR NO CLOUDS BELOW 12,000 FEET WITH NO
SIGNIFICANT WEATHER AND/OR OBSTRUCTIONS TO VISIBILITY.

OHZ001>008-015>018-024>027-034-035-043-044-021100-
   NORTHWEST OHIO

CITY           SKY/WX    TMP DP  RH WIND       PRES   REMARKS
DEFIANCE       CLEAR     17  11  77 W7        30.37R WCI   8
FINDLAY        PTCLDY    17  12  80 W14       30.34R WCI   3
TOLEDO EXPRESS MOCLDY    17  13  84 W13       30.33R WCI   4
TOLEDO EXEC    CLEAR     18  12  77 SW12      30.34R WCI   5
LIMA           PTCLDY    17  12  80 W12       30.36R WCI   4
$$

OHZ009>014-019>023-028>033-038-089-021100-
   NORTHEAST OHIO

CITY           SKY/WX    TMP DP  RH WIND       PRES   REMARKS
CLE-HOPKINS    FLURRIES  20  14  77 W12       30.31R WCI   8
CLE-LAKEFRONT  PTCLDY    20  14  77 SW14      30.28R WCI   7
CUY CO. ARPT   NOT AVBL
LORAIN-ELYRIA  MOCLDY    21  15  78 W9        30.30R WCI  11
ASHTABULA      CLOUDY    20  15  81 W12       30.24R WCI   8
AKRON-CANTON   LGT SNOW  21  15  78 NW14      30.27R WCI   8
WOOSTER        LGT SNOW  21  16  81 NW14      30.30R WCI   8
MANSFIELD      CLOUDY    20  15  81 W10G20    30.30R WCI   9
YOUNGSTOWN     LGT SNOW  21  16  81 W12       30.23R BLWGSNOWWCI   9
$$

OHZ042-051>053-060>062-070>072-077>081-021100-
  SOUTHWEST OHIO

CITY           SKY/WX    TMP DP  RH WIND       PRES   REMARKS
CINC-COVINGTON MOCLDY    23  17  78 W7        30.41R WCI  15
CINC-LUNKEN    CLEAR     24  17  74 NW5       30.45R WCI  18
HAMILTON       CLEAR     22  16  78 W6        30.44R WCI  14
DAYTON         MOCLDY    19  13  77 NW10      30.39R WCI   7
WRIGHT-PAT AFB CLOUDY    20  15  79 W7        30.40R WCI  11
DAYTON GENERAL PTCLDY    21  16  81 W8        30.38R WCI  11
WILMINGTON     PTCLDY    21  15  78 W10       30.38R WCI  10
$$

OHZ036-037-039>041-045>050-054>059-063>069-073>076-082>088-021100-
  CENTRAL AND SOUTHEAST OHIO

CITY           SKY/WX    TMP DP  RH WIND       PRES   REMARKS
COLUMBUS       CLOUDY    21  15  78 NW16      30.37R WCI   7
OSU AIRPORT    CLOUDY    21  15  78 NW12      30.36R WCI   9
BOLTON FIELD   CLOUDY   N/A N/A N/A W10       30.38R
RICKENBACK AFB CLOUDY    23  17  77 NW15G22   30.38R WCI  10
NEWARK         CLOUDY    24  17  74 NW14G21   30.34R WCI  12
MARION         CLOUDY    21  14  74 W13       30.34R WCI   9
LANCASTER      CLOUDY    24  18  77 NW16      30.36R WCI  11
ZANESVILLE     CLOUDY    25  19  78 NW13      30.31R WCI  14
NEW PHILLY     CLOUDY    25  18  74 NW9G21    30.31R HAZE    WCI  15
$$



USA.gov is the U.S. government's official web portal to all federal, state and local government web resources and services.